Location: West Cummington
(42.4920°N, 72.9680°W)
Time: 14:43:48
(UTC-04:00)

Daily predictions for brighter satellites

Satellite Brightness Start Highest point End
(mag) Time Altitude Azimuth Time Altitude Azimuth Time Altitude Azimuth
Cosmos 1934 Rocket 4.0 19:52:49 10° S 19:58:51 64° E 20:05:02 10° NNE
Cosmos 2278 3.8 19:53:57 10° S 19:59:28 57° ESE 20:05:03 10° NNE
Meteor 2-4 Rocket 4.1 19:54:53 10° NNW 20:00:45 80° W 20:06:41 10° S
METEOR-M 4.4 19:56:01 10° S 20:01:21 75° WSW 20:06:43 10° NNW
EO 1 Delta rocket 4.4 19:57:36 10° NNE 20:02:05 42° E 20:07:11 10° SSE
Cosmos 1633 3.7 19:58:41 10° SSW 20:02:15 50° W 20:05:49 10° N
Resurs 01 Rocket 2.3 20:02:21 10° S 20:06:43 59° W 20:11:07 10° NNW
NOSS 7 (E) 4.3 20:05:53 10° SSW 20:09:19 85° SE 20:12:42 10° NE
Cosmos 1544 Rocket 3.6 20:05:05 10° S 20:09:28 90° WNW 20:13:55 10° N
ALOS 2.3 20:06:14 10° SSE 20:10:52 70° ENE 20:15:32 10° N
Cosmos 2208 Rocket 4.0 20:07:02 10° SSW 20:12:20 81° ESE 20:17:47 10° NNE
Cosmos 2369 3.7 20:07:57 10° S 20:13:33 66° ESE 20:19:13 10° NNE
Spot 2 Rocket 4.4 20:08:43 10° S 20:13:41 53° W 20:18:40 10° NNW
Cosmos 1980 Rocket 3.6 20:12:08 10° SE 20:15:38 17° E 20:19:09 10° ENE
Cosmos 1975 3.4 20:12:48 10° SSE 20:16:35 37° E 20:20:23 10° NNE
H-2A R/B 2.8 20:13:24 10° SSE 20:17:15 64° ENE 20:21:10 10° N
NOSS 7 (H) 4.3 20:15:26 10° SSW 20:18:41 58° ESE 20:22:05 10° NE
Helios 1B rocket 3.9 20:14:47 10° N 20:18:43 43° WNW 20:22:36 10° SW
CZ-4B DEB 3.3 20:18:23 10° S 20:21:38 62° W 20:24:54 10° NNW
Lacrosse 5 rocket 1.0 20:18:56 10° NW 20:22:42 89° SSW 20:25:57 12° SE
Envisat 4.1 20:20:12 11° ESE 20:24:14 27° ENE 20:28:29 10° N
Okean 2 4.1 20:21:00 10° NNW 20:25:07 59° W 20:29:11 10° S
USA 186 1.5 20:22:01 10° SSE 20:25:07 68° ENE 20:28:00 10° N
Cosmos 1937 Rocket 4.5 20:20:34 10° N 20:25:13 31° ENE 20:29:04 14° ESE
Iridium 4 Rocket 3.7 20:21:29 10° N 20:26:22 44° E 20:30:47 10° SSE
Cosmos 1570 Rocket 4.4 20:21:36 10° SSW 20:26:53 71° WNW 20:32:10 10° NNE
OTV 4 2.4 20:30:07 10° WSW 20:32:20 19° SSW 20:34:01 13° SSE
Meteor 1-12 Rocket 4.2 20:30:43 10° S 20:36:24 73° E 20:42:15 10° NNE
FENGYUN 3A 3.9 20:31:29 10° S 20:36:49 72° WSW 20:42:11 10° NNW
CZ-2D R/B 3.7 20:33:52 10° S 20:37:42 64° WSW 20:41:35 10° NNW
Cosmos 1656 3.6 20:34:55 10° S 20:40:26 62° ESE 20:45:56 10° NNE
Cosmos 2173 Rocket 4.5 20:37:08 10° SSE 20:42:57 39° E 20:48:45 10° NNE
Cosmos 2227 Rocket 2.7 20:37:59 10° NNW 20:43:35 60° WSW 20:49:06 10° S
Cosmos 2150 Rocket 4.1 20:39:46 10° NNW 20:44:52 57° ENE 20:48:42 17° SE
Tiangong 1 0.9 20:42:45 10° W 20:45:52 88° N 20:47:24 27° E
Cosmos 1605 Rocket 4.2 20:41:23 10° SSW 20:47:43 78° W 20:54:00 10° N
Cosmos 1825 Rocket 4.4 20:46:43 10° N 20:50:44 33° ENE 20:52:30 24° ESE
Cosmos 1500 3.1 20:47:12 10° S 20:50:52 58° E 20:54:36 10° NNE
ERS-1 Rocket 3.0 20:48:08 14° SSE 20:52:19 63° ENE 20:57:18 10° N
Cosmos 1939 Rocket 3.2 20:49:57 21° SE 20:52:24 48° ENE 20:56:26 10° N
Lacrosse 5 2.0 20:48:54 10° NW 20:53:55 61° NE 20:56:52 24° ESE
Cosmos 2100 Rocket 4.1 20:50:22 10° SSE 20:56:27 54° E 21:02:30 10° NNE
DELTA 2 R/B (1) 4.0 20:53:18 10° W 20:58:39 49° SSW 21:01:40 24° SE
Cosmos 2297 Rocket 2.6 20:53:17 10° NNW 20:58:53 63° WSW 21:04:20 11° S
Cosmos 1953 Rocket 4.5 20:56:59 10° NNE 21:00:59 31° ENE 21:02:07 28° ESE
Cosmos 1340 3.5 20:57:50 10° N 21:01:17 32° ENE 21:01:55 30° E
SPOT 5 3.6 21:00:31 25° ESE 21:02:37 37° ENE 21:07:03 10° N
Cosmos 2061 Rocket 4.1 20:57:17 10° SSE 21:03:26 56° E 21:09:31 10° NNE
YAOGAN 11 4.1 21:00:22 16° SSE 21:04:01 89° WSW 21:08:31 10° NNW
Cosmos 1898 Rocket 3.5 20:58:45 10° NNW 21:04:05 89° ENE 21:07:49 20° SSE
Cosmos 1763 Rocket 4.0 21:01:52 21° SSE 21:04:27 34° ESE 21:09:01 10° NE
YAOGAN 6 3.9 21:04:21 24° ENE 21:04:29 24° ENE 21:07:30 10° NNE
H-2A R/B 2.4 21:03:38 31° ESE 21:04:57 41° ENE 21:08:52 10° N
Cosmos 1626 Rocket 4.4 21:03:50 10° NNW 21:08:07 50° W 21:12:19 10° SSW
Cosmos 1515 4.3 21:09:56 10° NNW 21:13:42 55° W 21:16:39 15° S
MetOp-A 4.5 21:13:18 31° ESE 21:15:26 46° ENE 21:20:33 10° N
RESURS DK-1 2.2 21:15:03 10° NNW 21:19:13 84° ENE 21:20:28 44° SSE
Cosmos 1758 Rocket 4.0 21:15:41 10° N 21:19:49 41° ENE 21:20:18 39° E
Cosmos 468 Rocket 4.0 21:15:00 10° SSW 21:20:06 81° WNW 21:25:17 10° NNE
USA 215 4.3 21:15:54 16° E 21:20:26 36° NNE 21:26:17 10° NW
deb Chang Zheng 4 3.6 21:17:11 10° NNE 21:21:36 58° ESE 21:23:15 35° SSE
Cosmos 2084 3.9 21:18:20 10° NW 21:22:18 52° WSW 21:23:56 32° S
CZ-4 DEB 4.0 21:22:56 24° SSW 21:24:21 38° W 21:27:19 10° NNW
Cosmos 841 Rocket 3.6 21:24:57 33° SSE 21:26:51 49° ESE 21:31:53 10° NNE
Cosmos 1743 2.6 21:26:39 34° S 21:28:16 89° W 21:32:12 10° N
Cosmos 1459 Rocket 3.9 21:22:30 10° S 21:28:33 90° ENE 21:34:42 10° N
Cosmos 1725 Rocket 4.3 21:28:16 35° SE 21:30:04 44° E 21:35:56 10° NNE
Cosmos 1814 Rocket 4.1 21:25:14 10° SSW 21:30:34 79° WNW 21:35:55 10° NNE
Terra 3.7 21:32:33 16° ENE 21:32:33 16° ENE 21:35:14 10° NNE
SL-19 R/B 4.5 21:30:03 10° NNE 21:35:13 42° E 21:35:23 42° ESE
Cosmos 1697 Rocket 3.1 21:30:20 10° SW 21:35:57 65° WNW 21:41:35 10° NNE
OAO 2 Rocket 4.1 21:33:52 10° WSW 21:38:27 35° S 21:38:28 35° S
SL-16 R/B 3.4 21:46:17 27° ENE 21:46:17 27° ENE 21:49:24 10° NE
Cosmos 2058 Rocket 3.1 21:45:01 62° E 21:45:01 62° E 21:49:20 10° NNE
NOAA 11 4.3 21:46:06 49° ESE 21:46:59 55° ENE 21:52:20 10° N
ASTEX 1 3.3 21:46:24 10° N 21:51:26 88° E 21:52:41 52° S
Cosmos 1606 Rocket 3.7 21:50:20 43° SSW 21:51:40 70° W 21:56:07 10° N
ARGOS 3.1 21:53:32 57° ESE 21:54:11 62° ENE 21:59:31 10° N
Cosmos 2233 Rocket 4.3 21:55:16 43° E 21:55:16 43° E 22:01:04 10° NNE
Cosmos 1842 3.6 21:51:55 10° N 21:55:11 60° N 21:55:11 60° N
Cosmos 1980 Rocket 2.4 21:53:20 10° SSW 21:58:58 70° WNW 22:04:42 10° NNE
Envisat 4.2 22:00:25 22° SSW 22:03:05 37° W 22:07:48 10° NNW
SL-08 R/B 4.5 22:00:46 31° SSW 22:03:59 82° W 22:10:11 10° N
MetOp-B 4.4 22:07:39 48° SSW 22:08:56 63° WSW 22:14:16 10° NNW
Cosmos 1726 Rocket 4.5 22:14:23 40° WSW 22:15:12 45° WNW 22:19:27 10° N
Cosmos 1666 4.0 22:16:27 39° NNW 22:16:27 39° NNW 22:19:11 10° N
H-2A R/B 2.5 22:17:51 46° NE 22:17:51 46° NE 22:21:49 10° N
Meteor 2-5 Rocket 4.3 22:13:11 10° N 22:18:28 46° ENE 22:18:28 46° ENE
Meteor 1-15 Rocket 4.3 22:19:19 58° SSW 22:20:33 81° W 22:26:27 10° N
CZ-4B R/B 3.7 22:17:19 10° NNE 22:21:05 56° NNE 22:21:05 56° NNE
Tiangong 1 4.4 22:19:21 10° W 22:19:22 10° W 22:19:22 10° W
Cosmos 1375 Rocket 4.4 22:25:11 73° SE 22:25:15 73° ESE 22:31:52 10° NE
Cosmos 2263 Rocket 2.6 22:20:31 10° NNW 22:25:29 48° NE 22:25:29 48° NE
Cosmos 2322 Rocket 2.3 22:32:37 64° NNE 22:32:37 64° NNE 22:37:21 10° NNE
SL-08 RB Rocket 4.3 22:33:41 55° NW 22:33:41 55° NW 22:37:31 10° NNW
SPOT 1/Viking Rocket 4.1 22:36:08 51° WSW 22:36:14 51° W 22:41:19 10° NNW
Lacrosse 5 3.5 22:32:31 10° WNW 22:36:04 24° WSW 22:36:04 24° WSW
H-2A R/B 4.3 22:40:46 16° W 22:41:11 16° W 22:43:48 10° NW
Cosmos 1125 Rocket 4.4 22:47:19 10° NNW 22:51:36 44° W 22:51:36 44° W
USA 215 3.2 23:03:14 84° NW 23:03:14 84° NW 23:09:34 10° NW
Terra 3.3 23:11:26 35° NW 23:11:26 35° NW 23:14:19 10° NNW
Cosmos 2278 Rocket 4.3 23:09:39 10° N 23:13:01 16° NE 23:13:01 16° NE
SL-16 R/B 3.4 23:28:05 37° WNW 23:28:22 37° WNW 23:33:38 10° N
Cosmos 1844 Rocket 4.1 23:33:03 10° NNW 23:36:28 32° NNE 23:36:28 32° NNE
Cosmos 2360 Rocket 3.6 23:45:50 34° N 23:45:50 34° N 23:49:00 10° NNE
